Theta_e
313 313 312 311 312 313 314 314 314 315 315 316 317 317 317 318 317 307 300 309 313 327 332 326 320 322 322 318 320 317 307 302 303 304 307 314 313 315 317 316 316 318 318 320 320
313 313 312 313 313 311 311 312 313 313 314 315 316 316 316 317 310 304 313 323 329 335 323 316 314 319 315 315 317 314 307 305 309 310 310 312 313 314 314 315 316 317 319 319 320
314 313 313 314 314 313 313 312 311 312 312 313 314 314 315 316 299 299 329 328 326 331 316 315 317 317 313 315 314 313 307 311 311 313 313 312 313 316 313 311 315 315 319 322 321
312 312 312 312 313 313 313 312 312 313 312 312 313 313 315 310 292 306 325 322 336 321 311 308 315 312 309 309 314 309 313 314 314 315 313 311 315 313 315 315 319 320 321 321 320
312 312 312 311 311 311 312 312 311 312 312 312 311 312 309 301 299 306 317 315 314 319 308 307 310 309 305 309 311 309 311 314 315 315 315 315 312 313 313 317 320 321 321 319 319
311 311 311 311 310 311 310 311 312 311 311 311 311 311 303 291 309 309 311 309 304 313 310 307 305 311 308 308 308 311 310 311 313 313 314 311 311 311 312 316 315 316 317 318 319
310 310 311 311 310 310 310 310 311 312 312 313 312 307 299 296 309 311 310 308 307 304 302 308 310 307 307 303 308 307 304 307 307 309 307 308 303 304 310 312 312 314 315 317 319
308 311 311 311 311 311 311 311 311 311 313 312 312 306 294 306 310 307 309 308 310 309 306 305 313 308 305 306 303 301 301 297 304 304 305 305 298 306 310 310 310 312 314 316 318
311 311 310 310 311 311 311 311 310 311 311 311 306 300 293 307 302 308 309 304 306 308 307 305 306 306 304 300 298 299 295 296 299 303 303 304 300 306 310 309 309 311 312 314 316
310 311 311 310 310 310 311 310 309 308 307 307 304 295 297 296 304 306 310 307 303 303 301 300 301 299 299 298 291 293 293 296 296 302 301 300 301 305 308 308 309 311 313 314 316
309 310 310 311 310 310 308 302 300 298 299 295 295 295 297 302 305 302 306 305 303 299 294 297 294 293 295 298 300 300 298 297 300 302 300 301 302 304 308 308 309 310 312 314 316
309 309 310 310 310 308 303 296 297 297 290 298 297 298 301 303 295 299 304 298 297 292 296 293 291 297 300 299 297 296 295 295 299 302 301 301 301 305 307 307 309 310 311 314 316
310 309 309 310 309 303 300 298 304 303 291 294 298 297 298 300 295 296 301 299 295 292 293 292 295 298 297 297 295 295 294 295 295 300 302 300 299 302 306 308 309 312 314 316 316
310 310 310 309 302 301 298 303 305 304 286 288 293 297 299 299 294 302 301 299 296 292 293 294 298 295 295 294 297 293 298 297 296 295 293 300 291 300 302 303 308 312 314 315 314
309 309 310 308 301 298 300 305 305 299 273 289 294 304 300 295 297 298 303 299 294 294 294 291 293 293 293 294 298 295 301 298 297 296 296 296 292 298 303 301 304 309 314 315 315
309 308 308 304 302 303 305 305 301 284 273 286 293 291 292 294 295 297 297 300 300 296 295 295 298 296 296 298 299 301 299 299 299 297 289 295 293 295 299 301 305 310 313 313 315
308 307 305 304 297 304 304 299 283 276 287 285 287 290 289 289 291 292 293 291 290 288 289 293 293 297 298 295 299 300 296 289 287 288 288 297 293 295 303 306 308 310 313 314 316
307 304 302 304 305 304 300 289 275 281 283 290 289 289 286 289 288 288 289 290 292 293 292 289 286 294 297 295 294 296 296 291 285 287 289 295 290 294 306 308 310 312 314 315 316
304 302 301 303 303 303 293 279 279 284 287 285 287 284 284 287 287 286 287 290 293 292 287 290 290 297 297 299 298 295 293 299 293 294 291 293 297 304 307 308 310 310 312 314 316
298 297 298 304 305 299 287 281 284 289 289 288 282 285 281 284 284 285 285 290 290 294 296 293 288 296 297 298 299 298 300 290 293 285 284 291 294 295 303 306 310 311 312 314 316
297 293 298 304 303 293 282 283 286 291 291 286 284 284 284 283 286 285 284 288 291 292 295 295 293 293 296 293 293 294 294 295 295 293 287 285 291 307 307 309 310 313 315 314 315
296 288 299 305 288 289 285 287 290 289 292 289 289 287 285 286 285 285 285 288 293 292 289 293 293 290 292 298 300 297 296 296 290 289 292 292 292 305 309 309 312 313 314 315 317
290 291 300 300 283 284 287 287 289 288 289 288 287 288 289 285 282 286 288 293 294 291 288 292 291 287 290 294 297 295 296 297 298 297 291 289 292 305 307 309 311 313 313 314 316
292 286 292 295 291 286 283 285 285 291 290 290 289 290 287 286 288 284 286 290 294 292 295 294 290 289 288 290 295 292 294 296 296 292 292 292 294 302 305 307 310 312 314 314 316
292 288 291 283 286 285 285 285 284 285 290 291 288 287 287 284 285 285 288 290 293 295 294 291 285 289 291 291 293 294 294 294 293 295 292 294 295 301 305 306 310 314 314 314 315
291 290 292 288 288 285 285 285 285 286 286 286 286 288 288 285 287 285 288 289 289 292 292 292 286 289 288 293 293 292 295 295 295 295 295 297 297 305 307 309 311 313 313 314 315
295 298 292 288 286 284 285 285 285 287 289 290 289 288 287 289 293 293 293 293 292 289 290 290 288 287 287 290 291 289 294 296 296 297 297 294 299 304 305 307 310 315 314 315 316
Wind_Speed
14 13 13 13 14 14 14 14 15 15 15 16 15 16 17 19 20 4 10 8 5 3 7 9 7 10 7 7 5 3 6 11 9 8 7 3 5 2 4 7 5 7 7 6 2
14 14 14 13 12 13 14 14 15 14 15 15 15 15 17 19 7 10 8 11 12 8 11 12 9 12 7 8 7 9 9 13 10 10 8 2 5 7 6 12 19 10 9 6 4
17 17 17 17 15 14 14 14 14 14 14 14 14 15 16 16 7 6 10 9 16 13 13 9 11 13 11 8 11 9 18 23 18 11 7 12 13 8 13 18 20 14 18 19 12
16 16 16 17 18 18 17 16 16 15 14 15 13 14 15 5 9 5 17 14 11 16 15 14 14 10 11 15 15 14 15 24 24 14 11 15 11 13 16 26 25 19 17 18 17
17 16 16 17 17 18 18 18 18 17 15 14 14 12 6 4 10 6 15 15 6 7 18 21 21 19 18 15 17 15 19 20 19 20 18 19 21 20 24 24 25 21 19 16 16
17 18 17 18 18 18 18 18 17 17 16 15 12 12 5 12 8 6 12 10 4 4 7 14 9 15 13 13 21 12 21 23 21 19 22 22 25 12 19 22 26 22 22 22 19
17 18 18 18 19 19 18 18 17 20 20 16 11 8 14 24 7 9 16 4 3 3 10 13 17 10 5 5 10 11 14 15 14 18 17 16 18 18 23 23 20 21 22 22 20
19 17 19 20 20 20 20 20 20 22 22 17 11 7 11 8 11 18 17 11 14 16 7 10 14 15 5 2 3 10 6 14 12 16 10 11 20 18 20 15 19 21 18 19 19
18 17 18 20 20 21 22 21 25 15 8 5 5 5 12 8 8 14 17 15 7 14 11 7 10 10 5 11 8 8 11 16 12 11 12 14 17 12 13 12 17 21 21 21 21
19 18 18 20 21 21 20 23 15 2 5 6 2 4 7 3 4 10 6 17 9 9 9 11 9 11 15 16 21 18 11 10 13 10 9 15 18 17 20 15 18 20 18 18 17
20 19 19 18 20 18 15 5 2 2 2 7 7 8 16 10 11 8 2 6 10 16 17 19 13 27 29 29 13 18 20 22 16 7 8 16 17 20 20 16 18 19 18 18 18
19 20 20 18 19 15 4 4 5 3 12 15 23 24 25 13 11 14 8 10 12 19 21 11 30 29 23 21 24 23 23 23 14 11 7 15 19 18 18 19 17 20 20 19 17
19 19 19 18 18 1 5 3 4 7 6 14 11 11 10 9 15 22 14 9 11 20 29 27 36 21 23 21 25 29 29 24 19 4 8 9 21 20 14 13 16 17 17 16 14
20 17 16 16 1 4 6 2 7 3 5 7 4 6 5 6 8 16 19 12 13 23 22 22 25 25 22 28 23 26 23 23 17 8 12 2 17 19 17 20 16 16 12 9 5
19 19 16 10 7 4 3 5 9 3 6 3 3 1 2 6 15 4 18 20 21 12 16 18 18 28 26 29 26 21 15 17 15 12 12 17 12 15 5 18 23 18 13 6 0
20 20 17 5 4 7 4 7 2 4 8 3 3 8 6 1 14 9 2 21 13 15 20 16 9 22 30 18 23 11 12 12 7 8 15 16 13 22 13 18 15 14 11 1 4
23 22 12 4 3 1 5 3 3 5 6 3 6 11 12 10 11 18 8 14 14 17 18 16 17 3 14 21 20 23 14 8 10 11 10 11 13 19 8 13 16 17 10 3 6
22 13 3 3 2 4 2 3 5 1 6 10 12 13 8 9 7 22 15 9 21 17 9 14 12 21 17 17 19 27 23 10 14 13 8 12 12 11 17 23 21 16 11 6 9
12 3 2 3 3 3 3 4 2 3 6 11 13 9 3 7 6 6 12 11 10 21 9 11 17 11 19 13 25 24 23 16 10 1 4 6 8 13 15 14 12 16 11 8 11
4 3 4 6 4 1 2 4 4 5 9 6 6 4 5 10 8 3 5 5 12 14 14 7 7 12 19 20 23 20 22 13 11 13 9 5 7 9 9 14 10 10 11 9 12
3 2 3 4 2 1 1 3 6 9 8 4 5 6 5 9 8 5 4 4 4 13 14 10 7 10 18 21 23 12 23 8 9 7 7 4 6 8 16 15 15 12 10 13 16
3 2 4 2 1 1 3 6 6 8 4 6 7 10 7 5 7 6 7 7 4 6 8 7 7 7 23 13 19 22 17 22 12 9 9 4 6 2 9 3 3 6 9 13 14
5 3 2 2 4 3 7 7 6 6 8 6 5 4 5 4 5 7 5 4 7 4 4 8 6 12 8 9 15 28 22 21 8 5 16 11 3 1 3 5 2 7 11 12 15
2 4 2 2 1 7 9 6 7 9 5 7 8 6 6 6 6 7 8 5 6 5 7 7 5 11 9 5 2 21 24 21 20 13 9 15 9 13 6 7 1 5 12 13 14
3 2 2 4 4 9 9 6 10 10 5 6 1 3 6 5 10 8 5 9 7 5 4 3 5 7 15 14 10 6 21 26 25 19 17 10 19 21 15 14 5 7 12 15 15
2 3 1 5 6 8 4 3 9 7 7 8 6 14 11 7 11 17 14 7 3 2 1 4 3 10 11 11 9 10 8 21 24 22 17 10 18 18 19 7 4 7 13 16 17
1 2 2 5 5 5 3 4 9 15 9 8 14 15 13 11 7 9 12 13 12 3 3 2 0 6 10 3 6 11 15 12 13 18 23 21 13 5 9 12 10 11 15 18 19
Wind_Direction
0 359 357 345 341 343 341 335 334 333 329 327 331 336 329 324 317 270 255 214 172 214 180 134 180 156 168 169 152 160 234 244 239 213 244 206 223 65 344 289 279 242 245 282 312
350 350 347 347 347 339 330 331 333 329 328 327 331 335 329 328 306 271 235 229 217 178 174 187 178 170 171 195 168 202 223 237 235 237 260 281 310 326 285 296 285 262 258 262 267
354 350 348 343 337 334 333 333 328 326 327 325 328 327 331 324 281 255 3 264 255 198 215 200 204 182 200 189 178 204 231 235 262 254 270 282 280 294 292 289 281 296 305 308 283
349 348 345 339 339 338 328 327 325 325 322 322 326 323 326 302 250 147 23 0 360 196 214 216 198 197 209 206 200 215 230 245 253 269 280 275 302 272 273 268 280 290 283 287 287
348 344 342 338 333 331 329 325 321 317 317 315 314 320 333 241 241 339 354 360 7 153 197 197 194 199 213 209 224 216 228 240 250 269 265 274 269 268 283 280 279 280 281 268 268
343 342 339 336 334 329 323 321 317 313 303 301 302 304 267 247 241 316 350 345 296 212 196 212 209 226 243 224 214 211 229 243 252 263 270 267 268 278 264 274 278 284 275 275 270
340 338 335 333 330 328 322 316 314 302 296 288 283 276 255 243 269 292 299 275 325 347 238 230 237 242 232 214 233 243 238 240 238 245 255 271 270 254 264 267 277 272 275 276 269
338 332 332 331 329 326 320 316 309 301 290 277 260 257 257 248 266 265 259 274 232 239 245 262 236 247 239 346 136 208 206 228 226 231 244 215 270 277 270 275 280 281 277 278 275
332 330 332 329 327 325 320 318 310 310 296 228 160 208 269 299 265 258 241 245 229 208 216 260 221 224 207 230 225 213 230 217 236 228 245 214 274 256 271 284 285 280 280 278 282
331 334 331 331 329 326 321 317 306 149 94 131 178 209 254 303 271 283 234 222 218 164 177 203 195 209 216 202 217 217 227 236 233 226 223 238 253 274 281 286 277 281 284 279 272
331 330 329 329 327 327 323 331 277 195 310 259 248 256 289 256 270 253 249 163 209 193 197 189 197 218 210 215 237 254 234 238 233 227 245 250 268 278 285 287 281 281 280 273 268
325 326 326 326 326 335 350 31 70 325 295 263 250 244 252 267 298 256 230 199 193 200 192 175 222 218 223 218 223 229 234 237 247 259 248 278 280 280 284 282 284 283 276 269 275
323 318 319 324 315 81 308 259 18 346 259 280 236 248 242 221 234 271 193 213 210 209 192 197 224 211 206 211 214 224 229 236 245 255 244 290 280 275 279 282 291 278 261 272 274
328 321 321 333 79 311 302 208 327 302 283 268 214 240 197 210 238 233 215 215 215 212 204 226 224 199 204 217 208 230 227 240 240 233 256 237 286 278 290 286 284 283 274 273 261
332 331 324 337 297 280 306 322 326 207 293 68 131 105 137 212 321 238 210 210 230 191 190 209 199 212 207 209 203 233 221 215 228 247 275 255 275 272 222 282 280 281 280 306 105
329 328 327 308 276 263 311 324 234 202 247 312 85 337 335 329 347 304 194 233 231 245 223 223 210 202 220 202 203 205 195 163 183 235 244 250 241 280 255 251 265 263 265 33 87
330 323 318 290 288 80 3 291 176 235 327 23 339 327 328 6 352 351 323 197 215 201 217 214 222 209 202 200 191 195 195 182 209 207 240 227 217 250 251 245 252 265 275 155 140
327 332 345 264 314 280 276 185 229 307 281 351 339 325 311 21 31 328 353 338 215 244 218 204 190 210 191 199 189 191 189 216 217 223 232 200 229 259 230 238 237 245 274 155 157
329 352 359 343 265 189 246 214 285 331 360 339 323 302 338 2 339 358 360 338 23 228 279 222 227 177 183 180 182 198 212 213 240 104 224 189 239 266 246 244 231 227 221 191 167
356 340 351 360 121 191 255 279 284 323 331 316 296 343 336 345 314 23 350 346 334 350 339 287 247 206 188 192 191 186 176 188 212 210 218 207 239 239 222 230 217 214 202 171 159
29 10 3 354 242 102 209 280 286 283 306 277 280 294 305 315 333 315 211 317 2 347 328 269 278 171 176 200 184 179 189 194 199 226 209 229 228 216 227 212 221 216 189 166 166
350 10 352 348 43 336 297 305 307 290 306 281 261 267 259 300 300 291 286 164 105 45 332 304 297 247 206 197 196 198 194 194 197 179 219 239 232 50 242 259 227 166 156 159 163
350 303 331 328 6 350 326 302 272 304 339 312 303 301 282 294 306 301 317 93 126 89 24 344 241 224 171 193 206 202 203 204 211 179 203 198 186 66 250 253 160 131 145 152 157
348 346 341 41 119 335 335 309 319 323 313 337 291 301 307 300 243 265 283 310 190 266 154 329 275 264 213 209 355 206 208 204 207 217 187 215 208 251 256 320 80 146 153 156 169
13 20 349 320 334 330 320 300 314 349 343 314 320 355 339 295 307 248 252 316 293 145 126 57 281 292 275 276 286 290 220 210 214 216 222 195 218 249 253 292 335 169 163 158 170
353 339 274 285 283 325 326 291 331 332 310 308 290 321 324 288 282 293 305 310 275 5 138 139 316 323 265 231 252 273 258 226 217 214 218 210 227 230 252 281 239 177 180 174 181
300 274 285 283 315 320 290 324 308 318 292 275 310 310 296 304 308 287 281 273 264 271 278 238 294 321 219 103 307 263 238 220 226 217 221 225 226 257 251 257 252 194 186 195 183